Location: ???????
(55.4362°N, 38.1183°E)
Time: 13:27:24
(UTC+00:00)

Oscar 11 - Pass Details

Date: 03 December 2021
Orbit: 611 x 625 km, 97.6° (Epoch: 25 January)

Event Time Altitude Azimuth Distance (km) Brightness Sun altitude
Rises 14:00:20 0° 172° (S) 2,898 10.8 -7.9°
Reaches altitude 10° 14:02:32 10° 176° (S) 1,997 10.0 -8.2°
Maximum altitude 14:06:51 64° 258° (WSW) 696 7.6 -8.7°
Drops below altitude 10° 14:11:14 10° 341° (NNW) 2,015 9.6 -9.3°
Sets 14:13:27 0° 344° (NNW) 2,927 10.4 -9.6°
